When you browse on this site, cookies collect data to enhance your experience and personalize the content and advertising you see.
Visit our Privacy Policy to learn more. By continuing to use the site, you agree to this use of cookies and data.
  • In Österreich
  • Länderverzeichnis
  • Für 7 Tage
  • Wassertemperatur
  • Satellitenkarten
  • Wetterkarte
  • News
  • Widgets
  • user-avatar
    Anmelden

    Stündliche Wetter Annaba

    Heute, 17 Februar, Sonntag

    Zeit Temperatur Niederschläge Wind Luftdruck Luftfeuchtigkeit
    00:00 +9°C° 0 mm 3 m/S 769 mmHg 78%
    01:00 +8°C° 0 mm 3 m/S 769 mmHg 76%
    02:00 +8°C° 0 mm 2 m/S 769 mmHg 75%
    03:00 +8°C° 0 mm 2 m/S 769 mmHg 73%
    04:00 +7°C° 0 mm 2 m/S 769 mmHg 72%
    05:00 +7°C° 0 mm 2 m/S 769 mmHg 71%
    06:00 +7°C° 0 mm 2 m/S 769 mmHg 71%
    07:00 +7°C° 0 mm 2 m/S 769 mmHg 70%
    08:00 +9°C° 0 mm 2 m/S 769 mmHg 65%
    09:00 +12°C° 0 mm 2 m/S 769 mmHg 61%
    10:00 +14°C° 0 mm 2 m/S 769 mmHg 56%
    11:00 +16°C° 0 mm 2 m/S 769 mmHg 51%
    12:00 +17°C° 0 mm 2 m/S 768 mmHg 47%
    13:00 +20°C° 0 mm 1 m/S 768 mmHg 42%
    14:00 +19°C° 0 mm 2 m/S 767 mmHg 46%
    15:00 +18°C° 0 mm 3 m/S 767 mmHg 50%
    16:00 +18°C° 0 mm 3 m/S 766 mmHg 54%
    17:00 +16°C° 0 mm 3 m/S 766 mmHg 63%
    18:00 +14°C° 0 mm 2 m/S 766 mmHg 71%
    19:00 +12°C° 0 mm 2 m/S 766 mmHg 79%
    20:00 +12°C° 0 mm 2 m/S 767 mmHg 78%
    21:00 +10°C° 0 mm 2 m/S 767 mmHg 78%
    22:00 +11°C° 0 mm 1 m/S 767 mmHg 77%
    23:00 +10°C° 0 mm 2 m/S 767 mmHg 74%

    Morgen, 18 Februar, Montag

    Zeit Temperatur Niederschläge Wind Luftdruck Luftfeuchtigkeit
    00:00 +10°C° 0 mm 2 m/S 767 mmHg 71%
    01:00 +9°C° 0 mm 2 m/S 767 mmHg 69%
    02:00 +9°C° 0 mm 2 m/S 766 mmHg 67%
    03:00 +9°C° 0 mm 2 m/S 766 mmHg 65%
    04:00 +9°C° 0 mm 2 m/S 766 mmHg 63%
    05:00 +9°C° 0 mm 2 m/S 766 mmHg 63%
    06:00 +9°C° 0 mm 2 m/S 765 mmHg 63%
    07:00 +8°C° 0 mm 2 m/S 765 mmHg 64%
    08:00 +11°C° 0 mm 1 m/S 765 mmHg 61%
    09:00 +13°C° 0 mm 1 m/S 765 mmHg 59%
    10:00 +15°C° 0 mm 1 m/S 765 mmHg 56%
    11:00 +18°C° 0 mm 1 m/S 765 mmHg 52%
    12:00 +19°C° 0 mm 1 m/S 764 mmHg 49%
    13:00 +21°C° 0 mm 1 m/S 764 mmHg 45%
    14:00 +20°C° 0 mm 1 m/S 764 mmHg 48%
    15:00 +19°C° 0 mm 2 m/S 763 mmHg 51%
    16:00 +19°C° 0 mm 3 m/S 763 mmHg 54%
    17:00 +17°C° 0 mm 3 m/S 763 mmHg 62%
    18:00 +14°C° 0 mm 3 m/S 763 mmHg 70%
    19:00 +12°C° 0 mm 3 m/S 763 mmHg 78%
    20:00 +11°C° 0 mm 3 m/S 763 mmHg 77%
    21:00 +12°C° 0 mm 2 m/S 763 mmHg 75%
    22:00 +10°C° 0 mm 2 m/S 763 mmHg 74%
    23:00 +10°C° 0 mm 2 m/S 763 mmHg 69%

    übermorgen, 19 Februar, Dienstag

    Zeit Temperatur Niederschläge Wind Luftdruck Luftfeuchtigkeit
    00:00 +10°C° 0 mm 2 m/S 763 mmHg 65%
    01:00 +9°C° 0 mm 2 m/S 763 mmHg 61%
    02:00 +9°C° 0 mm 2 m/S 763 mmHg 60%
    03:00 +9°C° 0 mm 2 m/S 763 mmHg 59%
    04:00 +9°C° 0 mm 2 m/S 763 mmHg 58%
    05:00 +8°C° 0 mm 2 m/S 763 mmHg 59%
    06:00 +8°C° 0 mm 2 m/S 763 mmHg 60%
    07:00 +8°C° 0 mm 2 m/S 763 mmHg 61%
    08:00 +10°C° 0 mm 2 m/S 763 mmHg 58%
    09:00 +13°C° 0 mm 2 m/S 764 mmHg 56%
    10:00 +15°C° 0 mm 1 m/S 764 mmHg 53%
    11:00 +16°C° 0 mm 1 m/S 763 mmHg 49%
    12:00 +17°C° 0 mm 0 m/S 763 mmHg 46%
    13:00 +19°C° 0 mm 0 m/S 763 mmHg 42%
    14:00 +20°C° 0 mm 1 m/S 763 mmHg 45%
    15:00 +19°C° 0 mm 2 m/S 762 mmHg 49%
    16:00 +18°C° 0 mm 3 m/S 762 mmHg 52%
    17:00 +16°C° 0 mm 3 m/S 762 mmHg 60%
    18:00 +14°C° 0 mm 3 m/S 762 mmHg 68%
    19:00 +12°C° 0 mm 3 m/S 762 mmHg 76%
    20:00 +12°C° 0 mm 2 m/S 763 mmHg 76%
    21:00 +12°C° 0 mm 2 m/S 763 mmHg 77%
    22:00 +11°C° 0 mm 1 m/S 764 mmHg 78%
    23:00 +11°C° 0 mm 1 m/S 764 mmHg 77%

    20 Februar, Mittwoch

    Zeit Temperatur Niederschläge Wind Luftdruck Luftfeuchtigkeit
    00:00 +11°C° 0 mm 1 m/S 764 mmHg 76%
    01:00 +11°C° 0 mm 1 m/S 764 mmHg 75%
    02:00 +10°C° 0 mm 1 m/S 763 mmHg 74%
    03:00 +10°C° 0 mm 1 m/S 763 mmHg 74%
    04:00 +10°C° 0 mm 1 m/S 763 mmHg 73%
    05:00 +10°C° 0 mm 1 m/S 763 mmHg 73%
    06:00 +9°C° 0 mm 1 m/S 763 mmHg 73%
    07:00 +9°C° 0 mm 1 m/S 764 mmHg 73%
    08:00 +11°C° 0 mm 1 m/S 764 mmHg 68%
    09:00 +13°C° 0 mm 1 m/S 764 mmHg 63%
    10:00 +14°C° 0 mm 0 m/S 765 mmHg 58%
    11:00 +16°C° 0 mm 1 m/S 764 mmHg 56%
    12:00 +18°C° 0 mm 1 m/S 764 mmHg 53%
    13:00 +18°C° 0 mm 2 m/S 764 mmHg 51%
    14:00 +18°C° 0 mm 2 m/S 764 mmHg 54%
    15:00 +18°C° 0 mm 3 m/S 764 mmHg 58%
    16:00 +17°C° 0 mm 3 m/S 764 mmHg 61%
    17:00 +16°C° 0 mm 3 m/S 764 mmHg 68%
    18:00 +14°C° 0 mm 2 m/S 764 mmHg 76%
    19:00 +13°C° 0 mm 2 m/S 765 mmHg 83%
    20:00 +12°C° 0 mm 2 m/S 765 mmHg 84%
    21:00 +12°C° 0 mm 2 m/S 766 mmHg 85%
    22:00 +12°C° 0 mm 2 m/S 766 mmHg 87%
    23:00 +12°C° 0 mm 2 m/S 766 mmHg 86%

    21 Februar, Donnerstag

    Zeit Temperatur Niederschläge Wind Luftdruck Luftfeuchtigkeit
    00:00 +12°C° 0 mm 1 m/S 766 mmHg 86%
    01:00 +11°C° 0 mm 1 m/S 766 mmHg 85%
    02:00 +11°C° 0 mm 1 m/S 766 mmHg 85%
    03:00 +11°C° 0 mm 1 m/S 766 mmHg 84%
    04:00 +10°C° 0 mm 0 m/S 766 mmHg 84%
    05:00 +10°C° 0 mm 0 m/S 767 mmHg 85%
    06:00 +11°C° 0 mm 1 m/S 767 mmHg 86%
    07:00 +11°C° 0 mm 1 m/S 767 mmHg 87%
    08:00 +12°C° 0 mm 1 m/S 768 mmHg 83%
    09:00 +14°C° 0 mm 1 m/S 768 mmHg 79%
    10:00 +15°C° 0 mm 1 m/S 768 mmHg 75%
    11:00 +16°C° 0 mm 1 m/S 768 mmHg 73%
    12:00 +18°C° 0 mm 1 m/S 768 mmHg 71%
    13:00 +17°C° 0 mm 2 m/S 768 mmHg 68%
    14:00 +17°C° 0 mm 2 m/S 768 mmHg 70%
    15:00 +17°C° 0 mm 3 m/S 768 mmHg 71%
    16:00 +17°C° 0 mm 3 m/S 768 mmHg 72%
    17:00 +14°C° 0 mm 3 m/S 768 mmHg 77%
    18:00 +14°C° 0 mm 2 m/S 769 mmHg 82%
    19:00 +13°C° 0 mm 2 m/S 769 mmHg 87%
    20:00 +12°C° 0 mm 2 m/S 770 mmHg 88%
    21:00 +12°C° 0 mm 1 m/S 770 mmHg 89%
    22:00 +11°C° 0 mm 1 m/S 770 mmHg 90%
    23:00 +11°C° 0 mm 1 m/S 770 mmHg 90%

    22 Februar, Freitag

    Zeit Temperatur Niederschläge Wind Luftdruck Luftfeuchtigkeit
    00:00 +11°C° 0 mm 1 m/S 770 mmHg 91%
    01:00 +11°C° 0 mm 1 m/S 770 mmHg 91%
    02:00 +11°C° 0 mm 1 m/S 770 mmHg 92%
    03:00 +10°C° 0 mm 1 m/S 770 mmHg 92%
    04:00 +10°C° 0 mm 1 m/S 770 mmHg 92%
    05:00 +9°C° 0 mm 2 m/S 770 mmHg 92%
    06:00 +9°C° 0 mm 2 m/S 770 mmHg 92%
    07:00 +9°C° 0 mm 2 m/S 770 mmHg 91%
    08:00 +10°C° 0 mm 2 m/S 770 mmHg 85%
    09:00 +12°C° 0 mm 2 m/S 770 mmHg 80%
    10:00 +14°C° 0 mm 2 m/S 771 mmHg 74%
    11:00 +15°C° 0 mm 2 m/S 770 mmHg 68%
    12:00 +16°C° 0 mm 2 m/S 770 mmHg 63%
    13:00 +17°C° 0 mm 2 m/S 770 mmHg 58%
    14:00 +16°C° 0 mm 2 m/S 769 mmHg 59%
    15:00 +16°C° 0 mm 3 m/S 769 mmHg 61%
    16:00 +16°C° 0 mm 3 m/S 768 mmHg 63%
    17:00 +15°C° 0 mm 2 m/S 769 mmHg 69%
    18:00 +13°C° 0 mm 2 m/S 769 mmHg 75%
    19:00 +10°C° 0 mm 2 m/S 769 mmHg 81%
    20:00 +10°C° 0 mm 2 m/S 769 mmHg 83%
    21:00 +10°C° 0 mm 2 m/S 769 mmHg 84%
    22:00 +9°C° 0 mm 2 m/S 769 mmHg 86%
    23:00 +9°C° 0 mm 2 m/S 769 mmHg 87%
    Mehr zeigen